PSLV DEB (43112 NORAD) Tracking and Keplerian Element Data

This shows tracking and keplerian element data for the satellite.

Feedback or suggestion? Click here.




ElementValue
Catalog43112
NamePSLV DEB
Epoch Orbit431
Epoch Day40.61814003
Epoch Year2018
RAAN102.8329
Inclination97.5519
Eccentricity0.0011955
Argument of Perigee157.2513
Mean Anonmoly202.9255
Mean Motion15.21479164
Decay Rate2.409E-05
L11 43112U 18004B 18040.61814003 .00002409 00000-0 11014-3 0 9995
L22 43112 97.5519 102.8329 0011955 157.2513 202.9255 15.21479164 4312



Live tracking and technical data element details for PSLV DEB (NORAD 43112). PSLV DEB can be tracked NOW for your location showing map with azimuth and elevation plus other details from your city location.







IsCatalogInMostPopularTable: catalog: 43112, numindb: 445
Update: records affected: 1



GetName: 43112 PSLV DEB

Hit Count: updated at: Fri, 16 May 2025 11:20:47 GMT